Tracking 18624 objects as of 28-April-2017
HD Live streaming from Space Station
objects crossing your sky now

COSMOS 252 DEB

Track COSMOS 252 DEB now!
10-day predictions


NORAD ID: 3559
Int'l Code: 1968-097M
Perigee: 512.3 km
Apogee: 1,350.8 km
Inclination: 62.3 °
Period: 103.5 minutes
Semi major axis: 7302 km
RCS: 0.1149 m2 (medium)
Launch date: November 1, 1968
Source: Commonwealth of Independent States (former USSR) (CIS)
Launch site: TYURATAM MISSILE AND SPACE COMPLEX (TTMTR)

Note: This is SATELLITE DEBRIS
Your satellite tracking list
Your tracking list is empty





NASA's NSSDC Master Catalog

Two Line Element Set (TLE):
1  3559U 68097M   17116.74877358 +.00000857 +00000-0 +20355-3 0  9995
2  3559 062.2936 054.3082 0574091 136.8252 227.9318 13.91202002377488
Source of the keplerian elements: AFSPC